Weather History for Princeton, MN

Change the Weather History Date:

Friday, September 20, 2013

  Actual Average Record
Temperature  
Mean Temperature 57 °F -  
Max Temperature 66 °F 66 °F 82 °F (2004)
Min Temperature 48 °F 43 °F 5 °F (1997)
Degree Days  
Heating Degree Days 8    
Growing Degree Days 7 (Base 50)    
Moisture  
Dew Point 51 °F    
Average Humidity 79    
Maximum Humidity 94    
Minimum Humidity 52    
Precipitation  
Precipitation 0.00 in - - ()
Sea Level Pressure  
Sea Level Pressure 29.86 in    
Wind  
Wind Speed 8 mph (West)    
Max Wind Speed 15 mph    
Max Gust Speed 22 mph    
Visibility 10 miles    
Events Rain    
Averages and records for this station are not official NWS values.
T = Trace of Precipitation, MM = Missing Value Source: NWS Daily Summary

Daily Weather History Graph

Daily Weather History Graph

Search for Another Location

Airport:

Trip Planner

Search our weather history database for the weather conditions in past years. The results will help you decide how hot, cold, wet, or windy it might be!

Date:

Astronomy

Sep. 20, 2013 Rise Set
Actual Time 6:59 AM CDT 7:15 PM CDT
Civil Twilight 6:29 AM CDT 7:44 PM CDT
Nautical Twilight 5:54 AM CDT 8:19 PM CDT
Astronomical Twilight 5:18 AM CDT 8:55 PM CDT
Moon 7:42 PM CDT (9/20) 8:20 AM CDT (9/20)
Length of Visible Light 13h 15m
Length of Day
12h 16m
Full, 98% of the Moon is Illuminated
Sep 20
Full
Sep 26
Last Quarter
Oct 4
New
Oct 11
First Quarter
Oct 18
Full

Hourly Weather History & Observations

Time (CDT) Temp. Dew Point Humidity Pressure Visibility Wind Dir Wind Speed Gust Speed Precip Events Conditions
12:13 AM 60.8 °F 55.4 °F 82% 29.80 in 10.0 mi West 5.8 mph - N/A   Clear
12:33 AM 60.8 °F 53.6 °F 77% 29.79 in 10.0 mi West 8.1 mph - N/A   Clear
12:54 AM 60.8 °F 53.6 °F 77% 29.80 in 10.0 mi West 8.1 mph - N/A   Mostly Cloudy
1:13 AM 60.8 °F 53.6 °F 77% 29.80 in 10.0 mi West 6.9 mph - N/A   Mostly Cloudy
1:33 AM 59.0 °F 53.6 °F 82% 29.80 in 10.0 mi West 6.9 mph - N/A   Scattered Clouds
1:53 AM 57.2 °F 53.6 °F 88% 29.80 in 10.0 mi West 8.1 mph - N/A   Scattered Clouds
2:13 AM 59.0 °F 53.6 °F 82% 29.79 in 10.0 mi West 5.8 mph - N/A   Scattered Clouds
2:33 AM 59.0 °F 53.6 °F 82% 29.79 in 10.0 mi West 5.8 mph - N/A   Mostly Cloudy
2:53 AM 59.0 °F 53.6 °F 82% 29.80 in 10.0 mi WSW 8.1 mph - N/A   Scattered Clouds
3:13 AM 59.0 °F 53.6 °F 82% 29.80 in 10.0 mi West 9.2 mph - N/A   Mostly Cloudy
3:33 AM 59.0 °F 53.6 °F 82% 29.80 in 10.0 mi West 8.1 mph - N/A   Overcast
3:53 AM 57.2 °F 53.6 °F 88% 29.80 in 10.0 mi West 8.1 mph - N/A   Scattered Clouds
4:13 AM 57.2 °F 53.6 °F 88% 29.80 in 10.0 mi West 4.6 mph - N/A   Scattered Clouds
4:33 AM 57.2 °F 53.6 °F 88% 29.81 in 10.0 mi WSW 5.8 mph - N/A   Mostly Cloudy
4:53 AM 57.2 °F 53.6 °F 88% 29.81 in 10.0 mi WSW 6.9 mph - N/A   Overcast
5:13 AM 57.2 °F 53.6 °F 88% 29.81 in 10.0 mi WSW 9.2 mph - N/A   Overcast
5:33 AM 57.2 °F 53.6 °F 88% 29.81 in 10.0 mi WSW 8.1 mph - N/A   Overcast
5:53 AM 57.2 °F 53.6 °F 88% 29.80 in 10.0 mi West 8.1 mph - N/A   Overcast
6:13 AM 57.2 °F 53.6 °F 88% 29.79 in 10.0 mi West 5.8 mph - N/A   Overcast
6:33 AM 57.2 °F 53.6 °F 88% 29.80 in 10.0 mi WSW 4.6 mph - N/A   Overcast
6:53 AM 57.2 °F 53.6 °F 88% 29.80 in 10.0 mi WSW 5.8 mph - N/A   Overcast
7:13 AM 57.2 °F 53.6 °F 88% 29.81 in 10.0 mi WSW 6.9 mph - N/A   Overcast
7:33 AM 57.2 °F 53.6 °F 88% 29.82 in 10.0 mi WSW 6.9 mph - N/A   Overcast
7:53 AM 57.2 °F 53.6 °F 88% 29.82 in 10.0 mi West 9.2 mph - N/A Rain Light Rain
8:13 AM 57.2 °F 53.6 °F 88% 29.82 in 7.0 mi West 9.2 mph - N/A Rain Light Rain
8:33 AM 57.2 °F 55.4 °F 94% 29.82 in 10.0 mi West 9.2 mph - N/A   Overcast
8:53 AM 57.2 °F 55.4 °F 94% 29.83 in 10.0 mi West 10.4 mph - N/A   Overcast
9:13 AM 59.0 °F 53.6 °F 82% 29.83 in 10.0 mi WNW 9.2 mph 16.1 mph N/A   Overcast
9:33 AM 59.0 °F 51.8 °F 77% 29.84 in 10.0 mi WNW 12.7 mph - N/A   Overcast
9:53 AM 59.0 °F 51.8 °F 77% 29.85 in 10.0 mi NW 10.4 mph 19.6 mph N/A   Mostly Cloudy
10:13 AM 59.0 °F 51.8 °F 77% 29.85 in 10.0 mi NW 13.8 mph 21.9 mph N/A   Overcast
10:33 AM 59.0 °F 51.8 °F 77% 29.85 in 10.0 mi WNW 11.5 mph 17.3 mph N/A   Overcast
10:53 AM 60.8 °F 51.8 °F 72% 29.86 in 10.0 mi West 10.4 mph 19.6 mph N/A   Overcast
11:13 AM 60.8 °F 51.8 °F 72% 29.87 in 10.0 mi West 12.7 mph 19.6 mph N/A   Overcast
11:33 AM 59.0 °F 51.8 °F 77% 29.88 in 10.0 mi West 11.5 mph 19.6 mph N/A   Overcast
11:53 AM 59.0 °F 50.0 °F 72% 29.88 in 10.0 mi WNW 12.7 mph 16.1 mph N/A   Overcast
12:13 PM 60.8 °F 50.0 °F 68% 29.88 in 10.0 mi WNW 12.7 mph 16.1 mph N/A   Overcast
12:33 PM 60.8 °F 51.8 °F 72% 29.88 in 10.0 mi West 11.5 mph - N/A   Overcast
12:53 PM 60.8 °F 51.8 °F 72% 29.88 in 10.0 mi West 10.4 mph 17.3 mph N/A   Mostly Cloudy
1:13 PM 62.6 °F 50.0 °F 63% 29.87 in 10.0 mi WNW 9.2 mph - N/A   Mostly Cloudy
1:34 PM 64.4 °F 50.0 °F 59% 29.87 in 10.0 mi West 11.5 mph - N/A   Overcast
1:53 PM 62.6 °F 48.2 °F 59% 29.87 in 10.0 mi NW 11.5 mph 17.3 mph N/A   Overcast
2:13 PM 64.4 °F 46.4 °F 52% 29.86 in 10.0 mi North 12.7 mph - N/A   Mostly Cloudy
2:34 PM 64.4 °F 46.4 °F 52% 29.86 in 10.0 mi WNW 12.7 mph 18.4 mph N/A   Scattered Clouds
2:53 PM 66.2 °F 48.2 °F 52% 29.86 in 10.0 mi NW 10.4 mph - N/A   Mostly Cloudy
3:13 PM 62.6 °F 46.4 °F 55% 29.86 in 10.0 mi West 15.0 mph 19.6 mph N/A   Overcast
3:33 PM 64.4 °F 46.4 °F 52% 29.86 in 10.0 mi West 12.7 mph 19.6 mph N/A   Mostly Cloudy
3:53 PM 62.6 °F 46.4 °F 55% 29.86 in 10.0 mi West 9.2 mph - N/A   Mostly Cloudy
4:13 PM 62.6 °F 48.2 °F 59% 29.87 in 10.0 mi West 9.2 mph 16.1 mph N/A   Mostly Cloudy
4:33 PM 60.8 °F 48.2 °F 63% 29.87 in 10.0 mi West 11.5 mph - N/A   Mostly Cloudy
4:53 PM 59.0 °F 50.0 °F 72% 29.87 in 10.0 mi West 11.5 mph 17.3 mph N/A   Mostly Cloudy
5:13 PM 59.0 °F 50.0 °F 72% 29.88 in 10.0 mi West 12.7 mph 17.3 mph N/A Rain Rain
5:33 PM 57.2 °F 51.8 °F 82% 29.88 in 10.0 mi West 9.2 mph - N/A Rain Light Rain
5:53 PM 57.2 °F 50.0 °F 77% 29.89 in 10.0 mi West 9.2 mph 17.3 mph N/A Rain Light Rain
6:13 PM 57.2 °F 48.2 °F 72% 29.89 in 10.0 mi West 8.1 mph - N/A   Overcast
6:33 PM 55.4 °F 50.0 °F 82% 29.89 in 10.0 mi West 10.4 mph - N/A   Light Drizzle
6:53 PM 55.4 °F 50.0 °F 82% 29.89 in 10.0 mi WSW 5.8 mph - N/A   Scattered Clouds
7:13 PM 53.6 °F 50.0 °F 88% 29.89 in 10.0 mi West 5.8 mph - N/A   Clear
7:33 PM 53.6 °F 48.2 °F 82% 29.90 in 10.0 mi West 4.6 mph - N/A   Clear
7:53 PM 51.8 °F 48.2 °F 88% 29.91 in 10.0 mi West 5.8 mph - N/A   Clear
8:13 PM 51.8 °F 48.2 °F 88% 29.91 in 10.0 mi West 4.6 mph - N/A   Clear
8:33 PM 51.8 °F 48.2 °F 88% 29.91 in 10.0 mi WSW 3.5 mph - N/A   Clear
8:53 PM 51.8 °F 48.2 °F 88% 29.92 in 10.0 mi WSW 3.5 mph - N/A   Clear
9:13 PM 51.8 °F 48.2 °F 88% 29.92 in 10.0 mi West 4.6 mph - N/A   Clear
9:33 PM 51.8 °F 46.4 °F 82% 29.93 in 10.0 mi West 6.9 mph - N/A   Clear
9:53 PM 50.0 °F 46.4 °F 87% 29.93 in 10.0 mi West 6.9 mph - N/A   Clear
10:13 PM 50.0 °F 46.4 °F 87% 29.93 in 10.0 mi West 5.8 mph - N/A   Clear
10:33 PM 48.2 °F 46.4 °F 93% 29.93 in 10.0 mi West 4.6 mph - N/A   Clear
10:53 PM 48.2 °F 44.6 °F 87% 29.93 in 10.0 mi West 4.6 mph - N/A   Clear
11:13 PM 48.2 °F 46.4 °F 93% 29.93 in 10.0 mi West 5.8 mph - N/A   Clear
11:33 PM 48.2 °F 46.4 °F 93% 29.94 in 10.0 mi West 4.6 mph - N/A   Clear
11:53 PM 48.2 °F 46.4 °F 93% 29.93 in 10.0 mi Calm Calm - N/A   Mostly Cloudy